Tracking 25723 objects as of 27-Jun-2022
HD Live streaming from Space Station
objects crossing your sky now

STARLINK-1854

Track STARLINK-1854 now!
10-day predictions
STARLINK-1854 is classified as:


NORAD ID: 47141
Int'l Code: 2020-088V
Perigee: 553.4 km
Apogee: 555.3 km
Inclination: 53.1 °
Period: 95.6 minutes
Semi major axis: 6925 km
RCS: Unknown
Launch date: November 25, 2020
Source: United States (US)
Launch site: AIR FORCE EASTERN TEST RANGE (AFETR)
aabbcc
Your satellite tracking list
Your tracking list is empty




NASA's NSSDC Master Catalog

Two Line Element Set (TLE):
1 47141U 20088V   22177.48447561  .00000896  00000-0  79029-4 0  9997
2 47141  53.0547 241.9182 0001401  87.3187 272.7962 15.06404961 88175
Source of the keplerian elements: AFSPC